VTZIP VOMM-VOMM

Flight info

Callsign VTZIP
Flight time 0h 4m
Altitude 8000
Route MMV
Aircraft H160/M-SDFHY/C

Departure

Time 2026-04-27 05:05
Airport Chennai International Airport (VOMM)

Arrival

Time 2026-04-27 05:10
Airport Chennai International Airport (VOMM)
Time Latitude Longitude Altitude Speed Heading
2026-04-27 04:55 13.07316 80.29009 22 ft 0 kts 289°
2026-04-27 04:55 13.07317 80.29009 21 ft 0 kts 263°
2026-04-27 04:56 13.07316 80.29009 21 ft 0 kts 259°
2026-04-27 05:02 13.07317 80.29009 21 ft 0 kts 270°
2026-04-27 05:03 13.07317 80.29008 23 ft 3 kts 283°
2026-04-27 05:04 13.07288 80.28924 318 ft 27 kts 210°
2026-04-27 05:04 13.07086 80.28797 440 ft 47 kts 216°
2026-04-27 05:04 13.06826 80.28592 497 ft 45 kts 222°
2026-04-27 05:04 13.06579 80.28338 439 ft 57 kts 227°
2026-04-27 05:05 13.06292 80.28050 463 ft 53 kts 224°
2026-04-27 05:05 13.06058 80.27874 690 ft 20 kts 188°
2026-04-27 05:05 13.05897 80.27769 1190 ft 38 kts 214°
2026-04-27 05:05 13.05730 80.27521 1746 ft 66 kts 211°
2026-04-27 05:06 13.05384 80.27322 2287 ft 45 kts 197°
2026-04-27 05:06 13.05138 80.27167 2686 ft 49 kts 224°
2026-04-27 05:06 13.04901 80.26876 2681 ft 57 kts 227°
2026-04-27 05:06 13.04635 80.26508 2597 ft 74 kts 234°
2026-04-27 05:07 13.04338 80.26051 2486 ft 76 kts 233°
2026-04-27 05:07 13.04081 80.25554 2369 ft 79 kts 241°
2026-04-27 05:07 13.03850 80.25085 2354 ft 71 kts 238°
2026-04-27 05:07 13.03623 80.24649 2317 ft 70 kts 237°
2026-04-27 05:08 13.03383 80.24181 2255 ft 75 kts 239°
2026-04-27 05:08 13.03135 80.23679 2120 ft 79 kts 236°
2026-04-27 05:08 13.02861 80.23185 1968 ft 81 kts 236°
2026-04-27 05:08 13.02568 80.22653 1750 ft 87 kts 238°
2026-04-27 05:09 13.02315 80.22170 1620 ft 89 kts 237°
2026-04-27 05:09 13.01982 80.21611 1384 ft 100 kts 233°
2026-04-27 05:09 13.01591 80.21022 1098 ft 101 kts 232°
2026-04-27 05:09 13.01253 80.20537 890 ft 73 kts 236°
2026-04-27 05:10 13.00967 80.20197 679 ft 59 kts 225°
2026-04-27 05:10 13.00638 80.20039 513 ft 49 kts 212°
2026-04-27 05:10 13.00374 80.19873 321 ft 43 kts 234°
2026-04-27 05:10 13.00221 80.19710 260 ft 17 kts 202°
2026-04-27 05:11 13.00031 80.19440 317 ft 69 kts 233°
2026-04-27 05:11 12.99787 80.18957 290 ft 81 kts 248°
2026-04-27 05:11 12.99585 80.18425 169 ft 75 kts 248°
2026-04-27 05:11 12.99419 80.17995 69 ft 49 kts 251°
2026-04-27 05:12 12.99334 80.17874 78 ft 7 kts 212°
2026-04-27 05:12 12.99246 80.17854 135 ft 33 kts 230°
2026-04-27 05:12 12.99144 80.17820 49 ft 0 kts 137°
2026-04-27 05:12 12.99142 80.17826 50 ft 0 kts 228°
2026-04-27 05:13 12.99141 80.17823 54 ft 2 kts 186°
2026-04-27 05:13 12.99141 80.17821 50 ft 1 kts 161°